This is the latest recevied weather packets stored in our database for station/object DL3TR-13. If no packets are shown the sender has not sent any weather packets the latest 10 day(s).
| Time | Temp. | Humidity | Pressure | Rain* | Wind** | Luminosity | Snow |
|---|---|---|---|---|---|---|---|
| 1777888990 | 20° C | 45% | 1011.2 hPa | 0 mm | - | 501 W/m² | - |
| 1777888390 | 20.56° C | 48% | 1011.2 hPa | 0 mm | - | 652 W/m² | - |
| 1777887791 | 20.56° C | 46% | 1011.3 hPa | 0 mm | - | 541 W/m² | - |
| 1777887190 | 20° C | 45% | 1011.4 hPa | 0 mm | - | 752 W/m² | - |
| 1777886590 | 20° C | 51% | 1011.4 hPa | 0 mm | - | 816 W/m² | - |
| 1777885990 | 20° C | 48% | 1011.5 hPa | 0 mm | - | 745 W/m² | - |
| 1777885390 | 20° C | 49% | 1011.6 hPa | 0 mm | - | 726 W/m² | - |
| 1777884790 | 19.44° C | 49% | 1011.7 hPa | 0 mm | - | 687 W/m² | - |
| 1777884190 | 18.89° C | 53% | 1011.7 hPa | 0 mm | - | 656 W/m² | - |
| 1777883590 | 18.33° C | 53% | 1011.8 hPa | 0 mm | - | 633 W/m² | - |
| 1777882990 | 18.33° C | 52% | 1012 hPa | 0 mm | - | 471 W/m² | - |
| 1777882390 | 17.78° C | 53% | 1012.1 hPa | 0 mm | - | 606 W/m² | - |
| 1777881790 | 17.78° C | 53% | 1012.2 hPa | 0 mm | - | 582 W/m² | - |
| 1777881190 | 17.22° C | 58% | 1012.2 hPa | 0 mm | - | 606 W/m² | - |
| 1777880590 | 16.11° C | 63% | 1012.2 hPa | 0 mm | - | 480 W/m² | - |
| 1777879990 | 15.56° C | 62% | 1012.4 hPa | 0 mm | - | 306 W/m² | - |
| 1777879390 | 15.56° C | 63% | 1012.4 hPa | 0 mm | - | 260 W/m² | - |
| 1777878790 | 15° C | 65% | 1012.4 hPa | 0 mm | - | 274 W/m² | - |
| 1777878191 | 14.44° C | 67% | 1012.5 hPa | 0 mm | - | 508 W/m² | - |
| 1777877590 | 13.33° C | 69% | 1012.5 hPa | 0 mm | - | 250 W/m² | - |
| 1777876990 | 13.33° C | 69% | 1012.4 hPa | 0 mm | - | 179 W/m² | - |
| 1777876390 | 12.78° C | 71% | 1012.4 hPa | 0 mm | - | 197 W/m² | - |
| 1777875790 | 12.78° C | 73% | 1012.5 hPa | 0 mm | - | 285 W/m² | - |
| 1777875190 | 12.22° C | 73% | 1012.4 hPa | 0 mm | - | 141 W/m² | - |
| 1777874590 | 11.67° C | 75% | 1012.5 hPa | 0 mm | - | 125 W/m² | - |
* Rain latest hour (hover to see other rain measurements)
** Current wind speed in m/s (hover to see current wind gust speed)